Location: Asheville, NC
(35.6000°N, 82.5500°W)
Time: 20:45:22
(UTC-04:00)

Vanguard 1 - Pass Details

Date: 15 March 2018
Orbit: 650 x 3833 km, 34.3° (Epoch: 20 June)

Event Time Altitude Azimuth Distance (km) Brightness Sun altitude
Rises 15:45:16 0° 287° (WNW) 7,857 15.0 42.3°
Reaches altitude 10° 15:51:13 10° 283° (WNW) 6,599 14.8 41.4°
Maximum altitude 16:09:50 50° 217° (SW) 3,023 14.5 38.6°
Drops below altitude 10° 16:20:39 10° 145° (SE) 3,980 13.3 36.8°
Sets 16:23:18 0° 139° (SE) 4,640 13.5 36.4°
